Location: Newark
(48.2308°N, 120.8549°W)
Time: 02:27:28
(UTC+00:00)

FENGYUN 1C DEB - Pass Details

Date: 29 January 2022
Orbit: 822 x 948 km, 99.2° (Epoch: 28 May)

Event Time Altitude Azimuth Distance (km) Brightness Sun altitude
Rises 01:41:02 0° 118° (ESE) 3,619 ? -7.6°
Reaches altitude 10° 01:44:01 10° 104° (ESE) 2,676 ? -8.1°
Maximum altitude 01:48:27 22° 56° (NE) 1,939 ? -8.8°
Drops below altitude 10° 01:52:52 10° 8° (N) 2,660 ? -9.5°
Sets 01:55:48 0° 354° (N) 3,592 ? -10.0°
